Swift Arrow — WAFK — position and weather

sailwx.info

Track history (hours):
 
Tides and Currents Weather Stations Pressure Air Temp Water Temp Dewpoint Dewpoint Depression Visibility Wind Speed Wind Dir Waves Ship Positions

Swift Arrow

Owner: ARROW LAUNCH SERVICE INC, Port Angeles, WA. More information available from US FCC via Universal Licensing System and Coast Guard Vessel Documentation Center.

Last reported at 2014-Oct-20 18:21 UTC. Time now 2014-Oct-20 21:24 UTC.
Position N 47°15' W 122°26'.

Type: Port tender. MMSI: 369021000.

Date/timePositionNaut miles runAvg speedWind from/ knotsBaromVisibWave heightAir tempDewpointWater temp
2014-Oct-20 18:21N 47°15' W 122°26'2 2.5
2014-Oct-20 17:33N 47°17' W 122°25'0 0.1
2014-Oct-20 16:33N 47°17' W 122°25'2 0.3
2014-Oct-20 10:33N 47°15' W 122°26'2 0.4
2014-Oct-20 04:29N 47°17' W 122°25'2 0.1
2014-Oct-19 13:33N 47°16' W 122°26'0 0.2
2014-Oct-19 12:33N 47°16' W 122°26'0 0.0
2014-Oct-19 11:33N 47°16' W 122°26'0 0.0
2014-Oct-19 10:33N 47°16' W 122°26'1 0.0
2014-Oct-18 09:33N 47°15' W 122°26'1 1.4
2014-Oct-18 08:29N 47°16' W 122°25'1 0.0
2014-Oct-16 19:33N 47°16' W 122°26'4 3.7
2014-Oct-16 18:33N 47°18' W 122°30'3 3.1
2014-Oct-16 17:33N 47°17' W 122°26'3 2.9
2014-Oct-16 16:34N 47°18' W 122°30'4 4.1
2014-Oct-16 15:33N 47°15' W 122°26'0 0.0
2014-Oct-16 08:15N 47°15' W 122°26'1 2.0
2014-Oct-16 07:33N 47°16' W 122°27'1 0.2
2014-Oct-16 01:25N 47°15' W 122°26'1 1.4
2014-Oct-16 00:33N 47°16' W 122°25'1 1.1
2014-Oct-15 23:33N 47°16' W 122°26'1 0.2
2014-Oct-15 19:08N 47°15' W 122°26'2 4.1
2014-Oct-15 18:33N 47°18' W 122°25'0 0.4
2014-Oct-15 17:33N 47°17' W 122°26'3 2.5
2014-Oct-15 16:20N 47°16' W 122°22'2 2.1
2014-Oct-15 15:34N 47°17' W 122°24'2 0.2
2014-Oct-15 03:05N 47°15' W 122°26'3 6.6
2014-Oct-15 02:34N 47°18' W 122°29'3 0.3
2014-Oct-14 13:12N 47°15' W 122°26'0 0.0
2014-Oct-13 16:33N 47°15' W 122°26'2 0.0
2014-Oct-11 19:34N 47°17' W 122°26'2 1.8
2014-Oct-11 18:33N 47°15' W 122°26'2 2.3
2014-Oct-11 17:33N 47°17' W 122°25'3 3.5
2014-Oct-11 16:33N 47°20' W 122°29'5 5.3
2014-Oct-11 15:33N 47°15' W 122°26'2 0.4
2014-Oct-11 11:33N 47°17' W 122°25'2 1.7
2014-Oct-11 10:33N 47°15' W 122°26'0 0.0
2014-Oct-10 20:24N 47°15' W 122°26'5 6.3
2014-Oct-10 19:33N 47°20' W 122°28'0 0.2
2014-Oct-10 18:33N 47°20' W 122°29'  
Track history (hours):
 
Tides and Currents Weather Stations Pressure Air Temp Water Temp Dewpoint Dewpoint Depression Visibility Wind Speed Wind Dir Waves Ship Positions

Swift Arrow

Owner: ARROW LAUNCH SERVICE INC, Port Angeles, WA. More information available from US FCC via Universal Licensing System and Coast Guard Vessel Documentation Center.

Last reported at 2014-Oct-20 18:21 UTC. Time now 2014-Oct-20 21:24 UTC.
Position N 47°15' W 122°26'.

Type: Port tender. MMSI: 369021000.

Date/timePositionNaut miles runAvg speedWind from/ knotsBaromVisibWave heightAir tempDewpointWater temp
2014-Oct-20 18:21N 47°15' W 122°26'2 2.5
2014-Oct-20 17:33N 47°17' W 122°25'0 0.1
2014-Oct-20 16:33N 47°17' W 122°25'2 0.3
2014-Oct-20 10:33N 47°15' W 122°26'2 0.4
2014-Oct-20 04:29N 47°17' W 122°25'2 0.1
2014-Oct-19 13:33N 47°16' W 122°26'0 0.2
2014-Oct-19 12:33N 47°16' W 122°26'0 0.0
2014-Oct-19 11:33N 47°16' W 122°26'0 0.0
2014-Oct-19 10:33N 47°16' W 122°26'1 0.0
2014-Oct-18 09:33N 47°15' W 122°26'1 1.4
2014-Oct-18 08:29N 47°16' W 122°25'1 0.0
2014-Oct-16 19:33N 47°16' W 122°26'4 3.7
2014-Oct-16 18:33N 47°18' W 122°30'3 3.1
2014-Oct-16 17:33N 47°17' W 122°26'3 2.9
2014-Oct-16 16:34N 47°18' W 122°30'4 4.1
2014-Oct-16 15:33N 47°15' W 122°26'0 0.0
2014-Oct-16 08:15N 47°15' W 122°26'1 2.0
2014-Oct-16 07:33N 47°16' W 122°27'1 0.2
2014-Oct-16 01:25N 47°15' W 122°26'1 1.4
2014-Oct-16 00:33N 47°16' W 122°25'1 1.1
2014-Oct-15 23:33N 47°16' W 122°26'1 0.2
2014-Oct-15 19:08N 47°15' W 122°26'2 4.1
2014-Oct-15 18:33N 47°18' W 122°25'0 0.4
2014-Oct-15 17:33N 47°17' W 122°26'3 2.5
2014-Oct-15 16:20N 47°16' W 122°22'2 2.1
2014-Oct-15 15:34N 47°17' W 122°24'2 0.2
2014-Oct-15 03:05N 47°15' W 122°26'3 6.6
2014-Oct-15 02:34N 47°18' W 122°29'3 0.3
2014-Oct-14 13:12N 47°15' W 122°26'0 0.0
2014-Oct-13 16:33N 47°15' W 122°26'2 0.0
2014-Oct-11 19:34N 47°17' W 122°26'2 1.8
2014-Oct-11 18:33N 47°15' W 122°26'2 2.3
2014-Oct-11 17:33N 47°17' W 122°25'3 3.5
2014-Oct-11 16:33N 47°20' W 122°29'5 5.3
2014-Oct-11 15:33N 47°15' W 122°26'2 0.4
2014-Oct-11 11:33N 47°17' W 122°25'2 1.7
2014-Oct-11 10:33N 47°15' W 122°26'0 0.0
2014-Oct-10 20:24N 47°15' W 122°26'5 6.3
2014-Oct-10 19:33N 47°20' W 122°28'0 0.2
2014-Oct-10 18:33N 47°20' W 122°29'  

Dump ship's entire track history